Time,TemperatureF,DewpointF,PressureIn,WindDirection,WindDirectionDegrees,WindSpeedMPH,WindSpeedGustMPH,Humidity,HourlyPrecipIn,Conditions,Clouds,dailyrainin,SolarRadiationWatts/m^2,SoftwareType,DateUTC
2017-06-28 00:02:00,60.2,50.3,30.01,NW,305,0.0,2.0,70,0.00,,,0.00,0,WeatherHawk,2017-06-28 05:02:00,
2017-06-28 00:07:00,60.1,50.2,30.02,South,176,0.0,2.0,70,0.00,,,0.00,0,WeatherHawk,2017-06-28 05:07:00,
2017-06-28 00:12:00,59.7,49.5,30.01,West,267,0.0,1.0,69,0.00,,,0.00,0,WeatherHawk,2017-06-28 05:12:00,
2017-06-28 00:17:00,59.5,49.3,30.02,SW,233,0.0,1.0,69,0.00,,,0.00,0,WeatherHawk,2017-06-28 05:17:00,
2017-06-28 00:22:00,59.8,49.6,30.02,SW,221,2.0,4.0,69,0.00,,,0.00,0,WeatherHawk,2017-06-28 05:22:00,
2017-06-28 00:27:00,59.3,48.7,30.02,SW,221,0.0,4.0,68,0.00,,,0.00,0,WeatherHawk,2017-06-28 05:27:00,
2017-06-28 00:32:00,59.2,48.6,30.02,SW,221,0.0,2.0,68,0.00,,,0.00,0,WeatherHawk,2017-06-28 05:32:00,
2017-06-28 00:37:00,59.1,48.5,30.02,SW,221,0.0,2.0,68,0.00,,,0.00,0,WeatherHawk,2017-06-28 05:37:00,
2017-06-28 00:42:00,58.9,48.7,30.01,SW,221,0.0,0.0,69,0.00,,,0.00,0,WeatherHawk,2017-06-28 05:42:00,
2017-06-28 00:47:00,58.9,49.1,30.01,SW,221,0.0,0.0,70,0.00,,,0.00,0,WeatherHawk,2017-06-28 05:47:00,
2017-06-28 00:52:00,58.0,48.3,30.00,SW,221,0.0,0.0,70,0.00,,,0.00,0,WeatherHawk,2017-06-28 05:52:00,
2017-06-28 00:57:00,58.7,49.7,30.00,SW,221,0.0,0.0,72,0.00,,,0.00,0,WeatherHawk,2017-06-28 05:57:00,
2017-06-28 01:02:00,58.0,49.4,30.00,SW,221,0.0,0.0,73,0.00,,,0.00,1,WeatherHawk,2017-06-28 06:02:00,
2017-06-28 01:07:00,57.9,49.3,30.00,SSW,210,0.0,0.0,73,0.00,,,0.00,0,WeatherHawk,2017-06-28 06:07:00,
2017-06-28 01:12:00,57.7,49.5,29.99,SSW,210,0.0,1.0,74,0.00,,,0.00,0,WeatherHawk,2017-06-28 06:12:00,
2017-06-28 01:17:00,57.6,49.4,30.00,South,170,0.0,1.0,74,0.00,,,0.00,0,WeatherHawk,2017-06-28 06:17:00,
2017-06-28 01:22:00,57.8,49.6,30.00,South,170,0.0,2.0,74,0.00,,,0.00,0,WeatherHawk,2017-06-28 06:22:00,
2017-06-28 01:27:00,57.2,49.7,29.99,South,170,0.0,2.0,76,0.00,,,0.00,0,WeatherHawk,2017-06-28 06:27:00,
2017-06-28 01:32:00,57.9,50.0,29.99,SSE,163,0.0,0.0,75,0.00,,,0.00,0,WeatherHawk,2017-06-28 06:32:00,
2017-06-28 01:37:00,57.8,49.5,29.99,South,176,1.0,0.0,74,0.00,,,0.00,0,WeatherHawk,2017-06-28 06:37:00,
2017-06-28 01:42:00,57.4,48.9,29.99,South,183,1.0,2.0,73,0.00,,,0.00,0,WeatherHawk,2017-06-28 06:42:00,
2017-06-28 01:47:00,57.7,49.4,29.98,SSW,199,0.0,2.0,74,0.00,,,0.00,0,WeatherHawk,2017-06-28 06:47:00,
2017-06-28 01:52:00,57.5,49.6,29.97,South,191,0.0,0.0,75,0.00,,,0.00,0,WeatherHawk,2017-06-28 06:52:00,
2017-06-28 01:57:00,57.3,49.5,29.97,SSE,156,0.0,0.0,75,0.00,,,0.00,0,WeatherHawk,2017-06-28 06:57:00,
2017-06-28 02:02:00,57.4,49.9,29.97,SE,132,0.0,2.0,76,0.00,,,0.00,0,WeatherHawk,2017-06-28 07:02:00,
2017-06-28 02:07:00,56.5,49.1,29.97,ESE,115,0.0,2.0,76,0.00,,,0.00,0,WeatherHawk,2017-06-28 07:07:00,
2017-06-28 02:12:00,56.8,49.7,29.97,SSE,168,0.0,3.0,77,0.00,,,0.00,0,WeatherHawk,2017-06-28 07:12:00,
2017-06-28 02:17:00,56.1,49.4,29.96,East,96,0.0,3.0,78,0.00,,,0.00,0,WeatherHawk,2017-06-28 07:17:00,
2017-06-28 02:22:00,55.8,49.3,29.97,South,170,0.0,2.0,79,0.00,,,0.00,0,WeatherHawk,2017-06-28 07:22:00,
2017-06-28 02:27:00,56.1,50.0,29.98,SSE,155,0.0,2.0,80,0.00,,,0.00,0,WeatherHawk,2017-06-28 07:27:00,
2017-06-28 02:32:00,56.2,50.1,29.96,SE,134,0.0,0.0,80,0.00,,,0.00,0,WeatherHawk,2017-06-28 07:32:00,
2017-06-28 02:37:00,56.2,49.8,29.96,SSE,154,0.0,0.0,79,0.00,,,0.00,0,WeatherHawk,2017-06-28 07:37:00,
2017-06-28 02:42:00,56.0,49.3,29.97,SE,131,1.0,2.0,78,0.00,,,0.00,0,WeatherHawk,2017-06-28 07:42:00,
2017-06-28 02:47:00,56.0,49.6,29.97,SE,133,0.0,2.0,79,0.00,,,0.00,0,WeatherHawk,2017-06-28 07:47:00,
2017-06-28 02:52:00,55.5,49.5,29.97,SE,143,0.0,4.0,80,0.00,,,0.00,0,WeatherHawk,2017-06-28 07:52:00,
2017-06-28 02:57:00,55.8,49.4,29.97,South,177,0.0,4.0,79,0.00,,,0.00,1,WeatherHawk,2017-06-28 07:57:00,
2017-06-28 03:02:00,56.7,49.9,29.96,South,190,0.0,0.0,78,0.00,,,0.00,0,WeatherHawk,2017-06-28 08:02:00,
2017-06-28 03:07:00,57.7,49.5,29.96,SSW,203,2.0,-999.0,74,0.00,,,0.00,0,WeatherHawk,2017-06-28 08:07:00,
2017-06-28 03:12:00,57.9,48.9,29.97,SSW,198,2.0,4.0,72,0.00,,,0.00,1,WeatherHawk,2017-06-28 08:12:00,
2017-06-28 03:17:00,57.5,48.5,29.96,SSW,208,0.0,4.0,72,0.00,,,0.00,0,WeatherHawk,2017-06-28 08:17:00,
2017-06-28 03:22:00,57.6,48.3,29.96,SSW,199,0.0,5.0,71,0.00,,,0.00,0,WeatherHawk,2017-06-28 08:22:00,
2017-06-28 03:27:00,57.7,48.0,29.96,South,188,0.0,5.0,70,0.00,,,0.00,0,WeatherHawk,2017-06-28 08:27:00,
2017-06-28 03:32:00,58.1,48.3,29.96,SSW,212,1.0,4.0,70,0.00,,,0.00,0,WeatherHawk,2017-06-28 08:32:00,
2017-06-28 03:37:00,58.7,48.6,29.96,South,174,4.0,4.0,69,0.00,,,0.00,0,WeatherHawk,2017-06-28 08:37:00,
2017-06-28 03:42:00,58.2,48.1,29.96,SSW,202,1.0,-999.0,69,0.00,,,0.00,0,WeatherHawk,2017-06-28 08:42:00,
2017-06-28 03:47:00,58.7,48.1,29.96,SSW,198,2.0,5.0,68,0.00,,,0.00,0,WeatherHawk,2017-06-28 08:47:00,
2017-06-28 03:52:00,58.4,47.8,29.96,SSW,209,1.0,0.0,68,0.00,,,0.00,1,WeatherHawk,2017-06-28 08:52:00,
2017-06-28 03:57:00,57.9,47.8,29.96,SW,216,0.0,0.0,69,0.00,,,0.00,0,WeatherHawk,2017-06-28 08:57:00,
2017-06-28 04:02:00,58.0,48.2,29.96,SSW,204,0.0,4.0,70,0.00,,,0.00,1,WeatherHawk,2017-06-28 09:02:00,
2017-06-28 04:07:00,58.8,48.6,29.96,SSW,203,1.0,4.0,69,0.00,,,0.00,0,WeatherHawk,2017-06-28 09:07:00,
2017-06-28 04:12:00,58.7,48.9,29.97,South,191,1.0,2.0,70,0.00,,,0.00,0,WeatherHawk,2017-06-28 09:12:00,
2017-06-28 04:17:00,58.7,48.5,29.96,SSW,203,1.0,2.0,69,0.00,,,0.00,0,WeatherHawk,2017-06-28 09:17:00,
2017-06-28 04:22:00,59.2,48.6,29.96,SSW,199,3.0,0.0,68,0.00,,,0.00,0,WeatherHawk,2017-06-28 09:22:00,
2017-06-28 04:27:00,59.4,48.8,29.96,SSW,198,1.0,0.0,68,0.00,,,0.00,0,WeatherHawk,2017-06-28 09:27:00,
2017-06-28 04:32:00,59.5,49.0,29.96,South,179,0.0,4.0,68,0.00,,,0.00,0,WeatherHawk,2017-06-28 09:32:00,
2017-06-28 04:37:00,59.7,48.7,29.96,SSW,196,2.0,4.0,67,0.00,,,0.00,0,WeatherHawk,2017-06-28 09:37:00,
2017-06-28 04:42:00,59.9,48.5,29.96,South,180,0.0,0.0,66,0.00,,,0.00,0,WeatherHawk,2017-06-28 09:42:00,
2017-06-28 04:47:00,59.3,48.4,29.96,SSW,209,0.0,0.0,67,0.00,,,0.00,0,WeatherHawk,2017-06-28 09:47:00,
2017-06-28 04:52:00,60.2,48.8,29.96,SSW,200,3.0,0.0,66,0.00,,,0.00,0,WeatherHawk,2017-06-28 09:52:00,
2017-06-28 04:57:00,59.9,48.5,29.96,SSW,193,2.0,0.0,66,0.00,,,0.00,0,WeatherHawk,2017-06-28 09:57:00,
2017-06-28 05:02:00,60.0,48.6,29.96,SSW,193,3.0,3.0,66,0.00,,,0.00,0,WeatherHawk,2017-06-28 10:02:00,
2017-06-28 05:07:00,59.8,48.4,29.95,SSW,193,0.0,3.0,66,0.00,,,0.00,3,WeatherHawk,2017-06-28 10:07:00,
2017-06-28 05:12:00,60.1,48.7,29.95,SSW,198,3.0,4.0,66,0.00,,,0.00,8,WeatherHawk,2017-06-28 10:12:00,
2017-06-28 05:17:00,59.8,48.1,29.95,SSW,197,0.0,4.0,65,0.00,,,0.00,8,WeatherHawk,2017-06-28 10:17:00,
2017-06-28 05:22:00,59.8,48.4,29.95,SSE,157,1.0,5.0,66,0.00,,,0.00,9,WeatherHawk,2017-06-28 10:22:00,
2017-06-28 05:27:00,59.2,48.3,29.95,South,176,0.0,5.0,67,0.00,,,0.00,8,WeatherHawk,2017-06-28 10:27:00,
2017-06-28 05:32:00,59.4,48.4,29.94,SSW,196,1.0,0.0,67,0.00,,,0.00,13,WeatherHawk,2017-06-28 10:32:00,
2017-06-28 05:37:00,59.0,48.4,29.93,SSW,192,1.0,0.0,68,0.00,,,0.00,12,WeatherHawk,2017-06-28 10:37:00,
2017-06-28 05:42:00,59.3,49.1,29.94,South,179,2.0,4.0,69,0.00,,,0.00,11,WeatherHawk,2017-06-28 10:42:00,
2017-06-28 05:47:00,59.4,48.8,29.94,South,184,2.0,4.0,68,0.00,,,0.00,14,WeatherHawk,2017-06-28 10:47:00,
2017-06-28 05:52:00,59.8,49.2,29.93,SE,140,4.0,0.0,68,0.00,,,0.00,17,WeatherHawk,2017-06-28 10:52:00,
2017-06-28 05:57:00,59.5,49.0,29.93,South,169,2.0,0.0,68,0.00,,,0.00,22,WeatherHawk,2017-06-28 10:57:00,
2017-06-28 06:02:00,59.8,49.3,29.94,SSW,193,1.0,4.0,68,0.00,,,0.00,21,WeatherHawk,2017-06-28 11:02:00,
2017-06-28 06:07:00,60.3,49.3,29.93,SSW,192,3.0,4.0,67,0.00,,,0.00,20,WeatherHawk,2017-06-28 11:07:00,
2017-06-28 06:12:00,60.3,49.3,29.95,SSE,152,1.0,0.0,67,0.00,,,0.00,19,WeatherHawk,2017-06-28 11:12:00,
2017-06-28 06:17:00,60.3,48.9,29.94,SSW,194,2.0,0.0,66,0.00,,,0.00,28,WeatherHawk,2017-06-28 11:17:00,
2017-06-28 06:22:00,60.5,48.7,29.94,SSW,192,3.0,0.0,65,0.00,,,0.00,20,WeatherHawk,2017-06-28 11:22:00,
2017-06-28 06:27:00,60.6,48.8,29.94,South,187,2.0,0.0,65,0.00,,,0.00,22,WeatherHawk,2017-06-28 11:27:00,
2017-06-28 06:32:00,60.6,48.7,29.94,South,184,3.0,6.0,65,0.00,,,0.00,30,WeatherHawk,2017-06-28 11:32:00,
2017-06-28 06:37:00,60.4,49.0,29.94,SSW,201,1.0,6.0,66,0.00,,,0.00,36,WeatherHawk,2017-06-28 11:37:00,
2017-06-28 06:42:00,60.6,49.2,29.94,South,180,1.0,4.0,66,0.00,,,0.00,39,WeatherHawk,2017-06-28 11:42:00,
2017-06-28 06:47:00,60.9,49.4,29.94,SSE,159,2.0,4.0,66,0.00,,,0.00,43,WeatherHawk,2017-06-28 11:47:00,
2017-06-28 06:52:00,61.0,49.5,29.95,SW,220,3.0,0.0,66,0.00,,,0.00,29,WeatherHawk,2017-06-28 11:52:00,
2017-06-28 06:57:00,61.0,49.9,29.96,South,188,0.0,0.0,67,0.00,,,0.00,30,WeatherHawk,2017-06-28 11:57:00,
2017-06-28 07:02:00,61.0,50.0,29.95,SSW,197,1.0,-999.0,67,0.00,,,0.00,25,WeatherHawk,2017-06-28 12:02:00,
2017-06-28 07:07:00,61.6,50.5,29.95,SSW,210,1.0,0.0,67,0.00,,,0.00,17,WeatherHawk,2017-06-28 12:07:00,
2017-06-28 07:12:00,61.6,50.6,29.95,SSW,192,1.0,0.0,67,0.00,,,0.00,16,WeatherHawk,2017-06-28 12:12:00,
2017-06-28 07:17:00,62.0,50.9,29.95,SSW,200,3.0,0.0,67,0.00,,,0.00,18,WeatherHawk,2017-06-28 12:17:00,
2017-06-28 07:22:00,62.2,51.1,29.94,SSE,159,2.0,0.0,67,0.00,,,0.00,39,WeatherHawk,2017-06-28 12:22:00,
2017-06-28 07:26:00,62.4,51.3,29.94,South,184,0.0,0.0,67,0.00,,,0.00,36,WeatherHawk,2017-06-28 12:26:00,
2017-06-28 07:32:00,63.0,51.9,29.93,South,169,4.0,6.0,67,0.00,,,0.00,61,WeatherHawk,2017-06-28 12:32:00,
2017-06-28 07:37:00,63.0,51.9,29.94,SSE,167,4.0,6.0,67,0.00,,,0.00,57,WeatherHawk,2017-06-28 12:37:00,
2017-06-28 07:42:00,62.9,52.2,29.94,SSW,206,6.0,0.0,68,0.00,,,0.00,46,WeatherHawk,2017-06-28 12:42:00,
2017-06-28 07:47:00,62.4,52.5,29.94,South,191,1.0,0.0,70,0.00,,,0.00,52,WeatherHawk,2017-06-28 12:47:00,
2017-06-28 07:52:00,62.8,52.5,29.94,South,175,2.0,0.0,69,0.00,,,0.00,39,WeatherHawk,2017-06-28 12:52:00,
2017-06-28 07:57:00,62.8,52.9,29.95,South,188,1.0,-999.0,70,0.00,,,0.00,27,WeatherHawk,2017-06-28 12:57:00,
2017-06-28 08:02:00,62.9,53.0,29.95,WSW,243,1.0,0.0,70,0.00,,,0.00,42,WeatherHawk,2017-06-28 13:02:00,
2017-06-28 08:07:00,63.2,52.9,29.95,WNW,289,2.0,0.0,69,0.00,,,0.00,71,WeatherHawk,2017-06-28 13:07:00,
2017-06-28 08:12:00,63.6,53.6,29.95,North,0,2.0,0.0,70,0.00,,,0.00,99,WeatherHawk,2017-06-28 13:12:00,
2017-06-28 08:17:00,63.6,53.6,29.95,SSW,202,3.0,0.0,70,0.00,,,0.00,105,WeatherHawk,2017-06-28 13:17:00,
2017-06-28 08:22:00,63.7,53.3,29.96,SSW,199,2.0,0.0,69,0.00,,,0.00,105,WeatherHawk,2017-06-28 13:22:00,
2017-06-28 08:27:00,63.7,53.3,29.95,South,183,3.0,0.0,69,0.00,,,0.00,91,WeatherHawk,2017-06-28 13:27:00,
2017-06-28 08:32:00,63.5,53.6,29.95,South,183,2.0,0.0,70,0.00,,,0.00,84,WeatherHawk,2017-06-28 13:32:00,
2017-06-28 08:37:00,63.3,54.1,29.95,SE,142,2.0,0.0,72,0.00,,,0.00,83,WeatherHawk,2017-06-28 13:37:00,
2017-06-28 08:42:00,63.0,54.2,29.96,SW,221,1.0,0.0,73,0.00,,,0.00,86,WeatherHawk,2017-06-28 13:42:00,
2017-06-28 08:47:00,62.8,54.7,29.95,SSW,197,3.0,0.0,75,0.00,,,0.00,87,WeatherHawk,2017-06-28 13:47:00,
2017-06-28 08:52:00,62.7,55.4,29.95,SSW,199,0.0,5.0,77,0.00,,,0.00,87,WeatherHawk,2017-06-28 13:52:00,
2017-06-28 08:57:00,62.7,56.0,29.95,SSW,203,3.0,5.0,79,0.00,,,0.00,88,WeatherHawk,2017-06-28 13:57:00,
2017-06-28 09:02:00,62.2,56.6,29.94,SSW,206,0.0,0.0,82,0.00,,,0.00,77,WeatherHawk,2017-06-28 14:02:00,
2017-06-28 09:07:00,61.7,57.2,29.95,NNE,22,1.0,0.0,85,0.00,,,0.00,66,WeatherHawk,2017-06-28 14:07:00,
2017-06-28 09:12:00,61.2,57.6,29.95,SSW,203,4.0,0.0,88,0.00,,,0.00,60,WeatherHawk,2017-06-28 14:12:00,
2017-06-28 09:17:00,60.7,58.4,29.95,SSW,197,1.0,0.0,92,0.00,,,0.00,60,WeatherHawk,2017-06-28 14:17:00,
2017-06-28 09:22:00,60.7,58.9,29.94,SW,226,4.0,0.0,94,0.00,,,0.00,73,WeatherHawk,2017-06-28 14:22:00,
2017-06-28 09:27:00,60.5,59.4,29.94,SW,222,2.0,0.0,96,0.00,,,0.00,83,WeatherHawk,2017-06-28 14:27:00,
2017-06-28 09:32:00,60.6,59.8,29.93,SW,234,4.0,0.0,97,0.04,,,0.04,80,WeatherHawk,2017-06-28 14:32:00,
2017-06-28 09:37:00,60.8,60.5,29.93,ENE,59,4.0,0.0,99,0.04,,,0.04,72,WeatherHawk,2017-06-28 14:37:00,
2017-06-28 09:42:00,60.8,60.5,29.92,SSW,205,3.0,0.0,99,0.04,,,0.04,79,WeatherHawk,2017-06-28 14:42:00,
2017-06-28 09:47:00,60.9,60.9,29.91,SSW,197,4.0,0.0,100,0.04,,,0.04,88,WeatherHawk,2017-06-28 14:47:00,
2017-06-28 09:52:00,60.9,60.9,29.89,SW,215,1.0,0.0,100,0.04,,,0.04,104,WeatherHawk,2017-06-28 14:52:00,
2017-06-28 09:57:00,61.3,61.3,29.88,SSW,193,6.0,0.0,100,0.04,,,0.04,125,WeatherHawk,2017-06-28 14:57:00,
2017-06-28 10:02:00,61.4,61.4,29.89,South,177,5.0,0.0,100,0.04,,,0.04,130,WeatherHawk,2017-06-28 15:02:00,
2017-06-28 10:07:00,61.4,61.4,29.89,SW,215,5.0,0.0,100,0.04,,,0.04,160,WeatherHawk,2017-06-28 15:07:00,
2017-06-28 10:12:00,61.7,61.7,29.89,NNW,328,2.0,0.0,100,0.04,,,0.04,154,WeatherHawk,2017-06-28 15:12:00,
2017-06-28 10:17:00,61.6,61.3,29.85,ENE,76,5.0,0.0,99,0.04,,,0.04,105,WeatherHawk,2017-06-28 15:17:00,
2017-06-28 10:22:00,61.8,61.5,29.84,SW,234,5.0,0.0,99,0.04,,,0.04,122,WeatherHawk,2017-06-28 15:22:00,
2017-06-28 10:27:00,61.8,61.5,29.86,SW,229,4.0,0.0,99,0.04,,,0.04,103,WeatherHawk,2017-06-28 15:27:00,
2017-06-28 10:32:00,61.9,61.6,29.85,SSW,206,4.0,0.0,99,0.00,,,0.04,95,WeatherHawk,2017-06-28 15:32:00,
2017-06-28 10:37:00,62.2,62.2,29.86,SSW,211,2.0,0.0,100,0.00,,,0.04,130,WeatherHawk,2017-06-28 15:37:00,
2017-06-28 10:42:00,62.4,62.4,29.85,SW,221,2.0,10.0,100,0.00,,,0.04,136,WeatherHawk,2017-06-28 15:42:00,
2017-06-28 10:47:00,62.3,62.0,29.87,WSW,245,2.0,10.0,99,0.00,,,0.04,83,WeatherHawk,2017-06-28 15:47:00,
2017-06-28 10:52:00,62.4,62.1,29.87,West,265,1.0,0.0,99,0.00,,,0.04,87,WeatherHawk,2017-06-28 15:52:00,
2017-06-28 10:57:00,62.6,62.3,29.88,South,188,0.0,0.0,99,0.00,,,0.04,115,WeatherHawk,2017-06-28 15:57:00,
2017-06-28 11:02:00,62.6,62.0,29.88,West,277,5.0,0.0,98,0.00,,,0.04,96,WeatherHawk,2017-06-28 16:02:00,
2017-06-28 11:07:00,62.8,62.2,29.89,WSW,257,4.0,0.0,98,0.00,,,0.04,107,WeatherHawk,2017-06-28 16:07:00,
2017-06-28 11:12:00,62.9,62.0,29.88,North,4,4.0,0.0,97,0.00,,,0.04,120,WeatherHawk,2017-06-28 16:12:00,
2017-06-28 11:17:00,62.7,61.8,29.88,WNW,286,5.0,0.0,97,0.00,,,0.04,69,WeatherHawk,2017-06-28 16:17:00,
2017-06-28 11:22:00,62.8,62.2,29.87,South,175,1.0,0.0,98,0.00,,,0.04,71,WeatherHawk,2017-06-28 16:22:00,
2017-06-28 11:27:00,62.9,62.3,29.88,South,191,3.0,0.0,98,0.00,,,0.04,55,WeatherHawk,2017-06-28 16:27:00,
2017-06-28 11:32:00,62.9,62.6,29.89,SSW,201,1.0,0.0,99,0.00,,,0.04,77,WeatherHawk,2017-06-28 16:32:00,
2017-06-28 11:37:00,63.0,62.7,29.88,SSW,195,9.0,0.0,99,0.04,,,0.08,82,WeatherHawk,2017-06-28 16:37:00,
2017-06-28 11:42:00,63.0,63.0,29.88,SW,221,2.0,9.0,100,0.04,,,0.08,80,WeatherHawk,2017-06-28 16:42:00,
2017-06-28 11:47:00,63.1,63.1,29.88,West,281,6.0,9.0,100,0.04,,,0.08,83,WeatherHawk,2017-06-28 16:47:00,
2017-06-28 11:52:00,62.9,62.9,29.87,South,182,5.0,8.0,100,0.04,,,0.08,69,WeatherHawk,2017-06-28 16:52:00,
2017-06-28 11:57:00,63.1,63.1,29.88,WNW,288,1.0,8.0,100,0.04,,,0.08,103,WeatherHawk,2017-06-28 16:57:00,
2017-06-28 12:02:00,63.2,63.2,29.88,South,187,1.0,0.0,100,0.04,,,0.08,108,WeatherHawk,2017-06-28 17:02:00,
2017-06-28 12:08:00,63.3,63.3,29.88,SW,226,1.0,0.0,100,0.04,,,0.08,108,WeatherHawk,2017-06-28 17:08:00,
2017-06-28 12:14:00,63.2,63.2,29.88,South,186,4.0,0.0,100,0.08,,,0.12,91,WeatherHawk,2017-06-28 17:14:00,
2017-06-28 12:19:00,63.6,63.6,29.88,SSE,156,1.0,6.0,100,0.08,,,0.12,106,WeatherHawk,2017-06-28 17:19:00,
2017-06-28 12:24:00,63.7,63.7,29.89,SW,217,2.0,6.0,100,0.08,,,0.12,110,WeatherHawk,2017-06-28 17:24:00,
2017-06-28 12:29:00,63.8,63.8,29.88,SSE,164,2.0,0.0,100,0.08,,,0.12,108,WeatherHawk,2017-06-28 17:29:00,
2017-06-28 12:34:00,64.1,64.1,29.88,SSW,202,0.0,0.0,100,0.04,,,0.12,125,WeatherHawk,2017-06-28 17:34:00,
2017-06-28 12:39:00,64.4,64.4,29.88,WSW,237,4.0,0.0,100,0.04,,,0.12,169,WeatherHawk,2017-06-28 17:39:00,
2017-06-28 12:46:00,64.6,64.6,29.87,South,173,2.0,0.0,100,0.04,,,0.12,128,WeatherHawk,2017-06-28 17:46:00,
2017-06-28 12:51:00,64.5,64.5,29.88,SSW,204,0.0,0.0,100,0.04,,,0.12,81,WeatherHawk,2017-06-28 17:51:00,
2017-06-28 12:57:00,64.3,64.0,29.89,South,184,0.0,0.0,99,0.04,,,0.12,56,WeatherHawk,2017-06-28 17:57:00,
2017-06-28 13:02:00,64.5,64.5,29.88,SSE,157,1.0,0.0,100,0.04,,,0.12,101,WeatherHawk,2017-06-28 18:02:00,
2017-06-28 13:07:00,64.7,64.7,29.89,SSW,205,3.0,0.0,100,0.04,,,0.12,84,WeatherHawk,2017-06-28 18:07:00,
2017-06-28 13:12:00,65.0,65.0,29.88,WSW,257,3.0,4.0,100,0.00,,,0.12,145,WeatherHawk,2017-06-28 18:12:00,
2017-06-28 13:17:00,65.7,65.4,29.86,South,182,2.0,4.0,99,0.00,,,0.12,327,WeatherHawk,2017-06-28 18:17:00,
2017-06-28 13:22:00,66.4,66.1,29.84,SSW,204,4.0,0.0,99,0.00,,,0.12,402,WeatherHawk,2017-06-28 18:22:00,
2017-06-28 13:27:00,67.1,66.2,29.85,South,184,5.0,0.0,97,0.00,,,0.12,416,WeatherHawk,2017-06-28 18:27:00,
2017-06-28 13:32:00,66.4,64.9,29.84,SE,143,6.0,0.0,95,0.00,,,0.12,234,WeatherHawk,2017-06-28 18:32:00,
2017-06-28 13:37:00,66.4,65.0,29.86,SW,216,3.0,0.0,95,0.00,,,0.12,127,WeatherHawk,2017-06-28 18:37:00,
2017-06-28 13:42:00,65.9,64.1,29.86,SSW,208,1.0,0.0,94,0.00,,,0.12,103,WeatherHawk,2017-06-28 18:42:00,
2017-06-28 13:47:00,66.0,64.5,29.85,SSE,166,3.0,0.0,95,0.00,,,0.12,88,WeatherHawk,2017-06-28 18:47:00,
2017-06-28 13:52:00,66.3,65.1,29.83,SSE,155,6.0,0.0,96,0.00,,,0.12,179,WeatherHawk,2017-06-28 18:52:00,
2017-06-28 13:57:00,67.0,65.5,29.84,WNW,285,2.0,0.0,95,0.00,,,0.12,316,WeatherHawk,2017-06-28 18:57:00,
2017-06-28 14:02:00,67.4,66.2,29.84,SSW,203,0.0,-999.0,96,0.00,,,0.12,238,WeatherHawk,2017-06-28 19:02:00,
2017-06-28 14:07:00,67.3,65.8,29.85,SW,226,2.0,0.0,95,0.00,,,0.12,198,WeatherHawk,2017-06-28 19:07:00,
2017-06-28 14:12:00,66.6,64.8,29.84,SSW,207,2.0,0.0,94,0.00,,,0.12,148,WeatherHawk,2017-06-28 19:12:00,
2017-06-28 14:17:00,66.7,64.9,29.84,SSW,210,1.0,0.0,94,0.00,,,0.12,181,WeatherHawk,2017-06-28 19:17:00,
2017-06-28 14:22:00,67.4,65.9,29.84,WSW,239,0.0,5.0,95,0.00,,,0.12,249,WeatherHawk,2017-06-28 19:22:00,
2017-06-28 14:28:00,67.6,65.8,29.83,WSW,237,3.0,0.0,94,0.00,,,0.12,258,WeatherHawk,2017-06-28 19:28:00,
2017-06-28 14:33:00,67.5,65.4,29.83,SW,217,3.0,0.0,93,0.00,,,0.12,222,WeatherHawk,2017-06-28 19:33:00,
2017-06-28 14:38:00,67.8,65.4,29.82,WSW,239,3.0,7.0,92,0.00,,,0.12,216,WeatherHawk,2017-06-28 19:38:00,
2017-06-28 14:44:00,68.9,66.8,29.83,SSW,192,1.0,7.0,93,0.00,,,0.12,266,WeatherHawk,2017-06-28 19:44:00,
2017-06-28 14:49:00,68.5,65.4,29.83,SSE,164,2.0,9.0,90,0.00,,,0.12,153,WeatherHawk,2017-06-28 19:49:00,
2017-06-28 14:55:00,68.7,66.0,29.82,SW,222,2.0,9.0,91,0.00,,,0.12,237,WeatherHawk,2017-06-28 19:55:00,
2017-06-28 15:01:00,69.2,65.8,29.82,SSW,195,4.0,0.0,89,0.00,,,0.12,299,WeatherHawk,2017-06-28 20:01:00,
2017-06-28 15:07:00,69.3,65.2,29.82,SSW,209,4.0,0.0,87,0.00,,,0.12,247,WeatherHawk,2017-06-28 20:07:00,
2017-06-28 15:12:00,69.2,65.2,29.82,SSW,209,4.0,0.0,87,0.00,,,0.12,180,WeatherHawk,2017-06-28 20:12:00,
2017-06-28 15:17:00,69.4,65.4,29.82,SW,224,4.0,0.0,87,0.00,,,0.12,147,WeatherHawk,2017-06-28 20:17:00,
2017-06-28 15:22:00,69.2,65.4,29.83,SSW,195,3.0,0.0,88,0.00,,,0.12,135,WeatherHawk,2017-06-28 20:22:00,
2017-06-28 15:27:00,69.0,65.3,29.82,WSW,242,1.0,0.0,88,0.00,,,0.12,74,WeatherHawk,2017-06-28 20:27:00,
2017-06-28 15:32:00,68.9,65.2,29.83,South,189,2.0,5.0,88,0.00,,,0.12,59,WeatherHawk,2017-06-28 20:32:00,
2017-06-28 15:37:00,69.2,65.9,29.82,SSW,198,4.0,5.0,89,0.00,,,0.12,50,WeatherHawk,2017-06-28 20:37:00,
2017-06-28 15:41:00,69.3,65.9,29.82,South,182,2.0,6.0,89,0.00,,,0.12,34,WeatherHawk,2017-06-28 20:41:00,
2017-06-28 15:47:00,69.3,66.2,29.83,SSW,210,3.0,6.0,90,0.00,,,0.12,45,WeatherHawk,2017-06-28 20:47:00,
2017-06-28 15:52:00,69.3,66.2,29.83,South,179,0.0,6.0,90,0.00,,,0.12,64,WeatherHawk,2017-06-28 20:52:00,
2017-06-28 15:57:00,69.5,66.1,29.84,South,191,4.0,6.0,89,0.00,,,0.12,46,WeatherHawk,2017-06-28 20:57:00,
2017-06-28 16:02:00,69.5,66.1,29.83,South,186,2.0,7.0,89,0.00,,,0.12,73,WeatherHawk,2017-06-28 21:02:00,
2017-06-28 16:07:00,69.4,66.0,29.83,SSW,196,3.0,7.0,89,0.00,,,0.12,45,WeatherHawk,2017-06-28 21:07:00,
2017-06-28 16:12:00,69.4,66.0,29.83,South,187,0.0,0.0,89,0.00,,,0.12,50,WeatherHawk,2017-06-28 21:12:00,
2017-06-28 16:17:00,69.7,66.3,29.82,SE,145,4.0,0.0,89,0.00,,,0.12,86,WeatherHawk,2017-06-28 21:17:00,
2017-06-28 16:22:00,70.6,67.2,29.82,SW,215,0.0,0.0,89,0.00,,,0.12,129,WeatherHawk,2017-06-28 21:22:00,
2017-06-28 16:27:00,71.1,67.4,29.81,SW,214,2.0,0.0,88,0.00,,,0.12,284,WeatherHawk,2017-06-28 21:27:00,
2017-06-28 16:32:00,72.2,67.4,29.81,SSW,212,3.0,0.0,85,0.00,,,0.12,281,WeatherHawk,2017-06-28 21:32:00,
2017-06-28 16:37:00,72.7,67.6,29.80,WSW,243,0.0,0.0,84,0.00,,,0.12,362,WeatherHawk,2017-06-28 21:37:00,
2017-06-28 16:42:00,72.9,66.7,29.80,SSW,196,2.0,4.0,81,0.00,,,0.12,547,WeatherHawk,2017-06-28 21:42:00,
2017-06-28 16:47:00,73.2,66.3,29.80,SSW,199,3.0,4.0,79,0.00,,,0.12,398,WeatherHawk,2017-06-28 21:47:00,
2017-06-28 16:52:00,74.0,67.4,29.80,SSE,152,0.0,6.0,80,0.00,,,0.12,386,WeatherHawk,2017-06-28 21:52:00,
2017-06-28 16:54:00,74.1,66.8,29.78,South,191,2.0,6.0,78,0.00,,,0.12,687,WeatherHawk,2017-06-28 21:54:00,
2017-06-28 16:59:00,73.4,65.7,29.78,SSE,168,4.0,7.0,77,0.00,,,0.12,439,WeatherHawk,2017-06-28 21:59:00,
2017-06-28 17:05:00,72.0,65.2,29.79,South,182,5.0,7.0,79,0.00,,,0.12,151,WeatherHawk,2017-06-28 22:05:00,
2017-06-28 17:11:00,72.1,66.0,29.79,South,184,2.0,5.0,81,0.00,,,0.12,152,WeatherHawk,2017-06-28 22:11:00,
2017-06-28 17:16:00,72.2,66.0,29.79,SSW,199,3.0,5.0,81,0.00,,,0.12,143,WeatherHawk,2017-06-28 22:16:00,
2017-06-28 17:21:00,72.3,66.5,29.78,SSW,207,2.0,7.0,82,0.00,,,0.12,131,WeatherHawk,2017-06-28 22:21:00,
2017-06-28 17:27:00,72.1,66.7,29.78,SSW,200,4.0,7.0,83,0.00,,,0.12,114,WeatherHawk,2017-06-28 22:27:00,
2017-06-28 17:32:00,71.9,66.8,29.78,NNE,13,3.0,0.0,84,0.00,,,0.12,53,WeatherHawk,2017-06-28 22:32:00,
2017-06-28 17:37:00,71.6,66.5,29.78,WSW,246,3.0,0.0,84,0.00,,,0.12,25,WeatherHawk,2017-06-28 22:37:00,
2017-06-28 17:42:00,70.7,66.6,29.79,SSW,195,5.0,6.0,87,0.04,,,0.16,6,WeatherHawk,2017-06-28 22:42:00,
2017-06-28 17:47:00,69.7,67.2,29.80,WSW,258,0.0,6.0,92,0.08,,,0.20,4,WeatherHawk,2017-06-28 22:47:00,
2017-06-28 17:52:00,69.1,67.6,29.84,SW,226,2.0,0.0,95,0.16,,,0.28,3,WeatherHawk,2017-06-28 22:52:00,
2017-06-28 17:56:00,68.6,67.7,29.82,South,188,0.0,0.0,97,0.59,,,0.71,0,WeatherHawk,2017-06-28 22:56:00,
2017-06-28 18:02:00,68.3,68.0,29.78,NW,315,0.0,0.0,99,0.75,,,0.87,4,WeatherHawk,2017-06-28 23:02:00,
2017-06-28 18:07:00,66.9,66.3,29.76,WSW,251,0.0,0.0,98,0.83,,,0.94,5,WeatherHawk,2017-06-28 23:07:00,
2017-06-28 18:12:00,67.8,67.5,29.77,SW,231,0.0,0.0,99,0.87,,,0.98,3,WeatherHawk,2017-06-28 23:12:00,
2017-06-28 18:17:00,67.2,66.9,29.78,SW,218,0.0,0.0,99,0.94,,,1.06,1,WeatherHawk,2017-06-28 23:17:00,
2017-06-28 18:22:00,68.2,68.2,29.76,SW,230,0.0,0.0,100,1.02,,,1.14,1,WeatherHawk,2017-06-28 23:22:00,
2017-06-28 18:27:00,67.5,67.5,29.77,SSW,207,0.0,0.0,100,1.02,,,1.14,0,WeatherHawk,2017-06-28 23:27:00,
2017-06-28 18:32:00,67.9,67.9,29.75,ESE,113,0.0,4.0,100,1.02,,,1.14,0,WeatherHawk,2017-06-28 23:32:00,
2017-06-28 18:37:00,68.0,68.0,29.73,ENE,75,0.0,4.0,100,1.06,,,1.18,1,WeatherHawk,2017-06-28 23:37:00,
2017-06-28 18:42:00,67.6,67.6,29.75,North,4,0.0,2.0,100,1.02,,,1.18,0,WeatherHawk,2017-06-28 23:42:00,
2017-06-28 18:47:00,67.7,67.7,29.75,SSE,168,0.0,2.0,100,1.02,,,1.18,0,WeatherHawk,2017-06-28 23:47:00,
2017-06-28 18:52:00,67.6,67.6,29.76,SSE,168,0.0,0.0,100,0.98,,,1.22,1,WeatherHawk,2017-06-28 23:52:00,
2017-06-28 18:57:00,67.7,67.7,29.77,WNW,297,2.0,0.0,100,0.47,,,1.26,0,WeatherHawk,2017-06-28 23:57:00,
2017-06-28 19:02:00,67.4,67.4,29.78,WNW,293,0.0,-999.0,100,0.39,,,1.26,0,WeatherHawk,2017-06-29 00:02:00,
2017-06-28 19:07:00,66.6,66.6,29.80,WSW,257,4.0,0.0,100,0.55,,,1.46,1,WeatherHawk,2017-06-29 00:07:00,
2017-06-28 19:12:00,64.3,64.3,29.81,SW,234,4.0,7.0,100,0.71,,,1.69,0,WeatherHawk,2017-06-29 00:12:00,
2017-06-28 19:17:00,61.3,60.5,29.77,SSE,153,4.0,7.0,97,0.87,,,1.89,0,WeatherHawk,2017-06-29 00:17:00,
2017-06-28 19:22:00,61.0,60.4,29.66,ENE,76,9.0,0.0,98,0.87,,,2.01,1,WeatherHawk,2017-06-29 00:22:00,
2017-06-28 19:27:00,61.0,61.0,29.65,SSW,197,5.0,0.0,100,0.87,,,2.01,0,WeatherHawk,2017-06-29 00:27:00,
2017-06-28 19:32:00,61.1,61.1,29.64,SSE,157,7.0,0.0,100,0.87,,,2.01,1,WeatherHawk,2017-06-29 00:32:00,
2017-06-28 19:37:00,61.0,61.0,29.64,SE,128,6.0,0.0,100,0.83,,,2.01,0,WeatherHawk,2017-06-29 00:37:00,
2017-06-28 19:42:00,61.5,61.2,29.62,SE,131,6.0,10.0,99,0.83,,,2.01,0,WeatherHawk,2017-06-29 00:42:00,
2017-06-28 19:47:00,62.2,61.9,29.66,SE,144,4.0,10.0,99,0.83,,,2.01,0,WeatherHawk,2017-06-29 00:47:00,
2017-06-28 19:52:00,62.6,62.0,29.68,SSW,212,0.0,0.0,98,0.79,,,2.01,0,WeatherHawk,2017-06-29 00:52:00,
2017-06-28 19:57:00,62.9,62.3,29.67,WSW,240,4.0,0.0,98,0.79,,,2.01,1,WeatherHawk,2017-06-29 00:57:00,
2017-06-28 20:02:00,62.3,61.4,29.70,SSW,195,2.0,7.0,97,0.75,,,2.01,0,WeatherHawk,2017-06-29 01:02:00,
2017-06-28 20:07:00,61.9,61.6,29.71,SSW,193,0.0,7.0,99,0.55,,,2.01,0,WeatherHawk,2017-06-29 01:07:00,
2017-06-28 20:12:00,61.9,61.9,29.73,SSW,198,0.0,5.0,100,0.31,,,2.01,0,WeatherHawk,2017-06-29 01:12:00,
2017-06-28 20:17:00,62.6,62.6,29.74,South,169,0.0,5.0,100,0.08,,,2.01,1,WeatherHawk,2017-06-29 01:17:00,
2017-06-28 20:22:00,62.3,62.3,29.74,SW,216,0.0,5.0,100,0.00,,,2.01,1,WeatherHawk,2017-06-29 01:22:00,
2017-06-28 20:27:00,63.0,63.0,29.75,West,259,0.0,5.0,100,0.00,,,2.01,0,WeatherHawk,2017-06-29 01:27:00,
2017-06-28 20:32:00,63.4,63.4,29.75,SSW,199,0.0,5.0,100,0.00,,,2.01,1,WeatherHawk,2017-06-29 01:32:00,
2017-06-28 20:37:00,63.9,63.9,29.73,South,172,0.0,5.0,100,0.00,,,2.01,0,WeatherHawk,2017-06-29 01:37:00,
2017-06-28 20:42:00,64.2,64.2,29.74,SSW,208,0.0,2.0,100,0.00,,,2.01,0,WeatherHawk,2017-06-29 01:42:00,
2017-06-28 20:47:00,64.2,64.2,29.74,South,185,0.0,2.0,100,0.00,,,2.01,1,WeatherHawk,2017-06-29 01:47:00,
2017-06-28 20:52:00,64.4,64.4,29.73,SSE,159,0.0,1.0,100,0.00,,,2.01,0,WeatherHawk,2017-06-29 01:52:00,
2017-06-28 20:57:00,65.1,65.1,29.75,SW,233,0.0,1.0,100,0.00,,,2.01,0,WeatherHawk,2017-06-29 01:57:00,
2017-06-28 21:02:00,65.3,65.3,29.75,SW,221,0.0,4.0,100,0.00,,,2.01,0,WeatherHawk,2017-06-29 02:02:00,
2017-06-28 21:07:00,65.4,65.4,29.75,SSW,203,0.0,4.0,100,0.00,,,2.01,0,WeatherHawk,2017-06-29 02:07:00,
2017-06-28 21:12:00,66.0,66.0,29.75,SSW,198,4.0,4.0,100,0.00,,,2.01,0,WeatherHawk,2017-06-29 02:12:00,
2017-06-28 21:17:00,65.6,65.6,29.75,WNW,298,0.0,3.0,100,0.00,,,2.01,0,WeatherHawk,2017-06-29 02:17:00,
2017-06-28 21:22:00,65.7,65.7,29.76,SSW,207,1.0,5.0,100,0.00,,,2.01,0,WeatherHawk,2017-06-29 02:22:00,
2017-06-28 21:27:00,65.3,65.3,29.76,SSW,204,0.0,5.0,100,0.00,,,2.01,0,WeatherHawk,2017-06-29 02:27:00,
2017-06-28 21:32:00,65.3,65.3,29.76,SSW,210,0.0,4.0,100,0.00,,,2.01,0,WeatherHawk,2017-06-29 02:32:00,
2017-06-28 21:37:00,65.3,65.3,29.75,SSW,200,1.0,4.0,100,0.00,,,2.01,0,WeatherHawk,2017-06-29 02:37:00,
2017-06-28 21:42:00,64.8,64.8,29.76,SSW,206,0.0,6.0,100,0.00,,,2.01,0,WeatherHawk,2017-06-29 02:42:00,
2017-06-28 21:47:00,64.9,64.9,29.77,SSW,196,0.0,6.0,100,0.00,,,2.01,1,WeatherHawk,2017-06-29 02:47:00,
2017-06-28 21:52:00,64.7,64.7,29.78,SSW,192,2.0,4.0,100,0.00,,,2.01,0,WeatherHawk,2017-06-29 02:52:00,
2017-06-28 21:57:00,64.6,64.6,29.78,South,191,1.0,4.0,100,0.00,,,2.01,0,WeatherHawk,2017-06-29 02:57:00,
2017-06-28 22:02:00,64.5,64.5,29.78,SSW,195,0.0,4.0,100,0.00,,,2.01,1,WeatherHawk,2017-06-29 03:02:00,
2017-06-28 22:07:00,64.7,64.7,29.78,South,188,2.0,4.0,100,0.00,,,2.01,1,WeatherHawk,2017-06-29 03:07:00,